This is the latest recevied weather packets stored in our database for station/object W5TUX. If no packets are shown the sender has not sent any weather packets the latest 10 day(s).
| Time | Temp. | Humidity | Pressure | Rain* | Wind** | Luminosity | Snow |
|---|---|---|---|---|---|---|---|
| 1777858640 | 23.33° C | 40% | 1020.5 hPa | 0 mm | - | 0 W/m² | - |
| 1777858338 | 23.89° C | 39% | 1020.6 hPa | 0 mm | - | 0 W/m² | - |
| 1777858034 | 23.89° C | 38% | 1020.6 hPa | 0 mm | - | 0 W/m² | - |
| 1777857732 | 23.89° C | 38% | 1020.5 hPa | 0 mm | - | 0 W/m² | - |
| 1777857429 | 23.89° C | 37% | 1020.3 hPa | 0 mm | - | 1 W/m² | - |
| 1777857125 | 24.44° C | 36% | 1020.3 hPa | 0 mm | - | 1 W/m² | - |
| 1777856821 | 24.44° C | 36% | 1020.3 hPa | 0 mm | - | 2 W/m² | - |
| 1777856517 | 24.44° C | 36% | 1020.3 hPa | 0 mm | - | 3 W/m² | - |
| 1777856214 | 25° C | 36% | 1020.2 hPa | 0 mm | - | 4 W/m² | - |
| 1777855911 | 25° C | 35% | 1020.2 hPa | 0 mm | - | 5 W/m² | - |
| 1777855609 | 25° C | 35% | 1020.2 hPa | 0 mm | - | 7 W/m² | - |
| 1777855306 | 25° C | 35% | 1020.2 hPa | 0 mm | - | 9 W/m² | - |
| 1777855002 | 25.56° C | 34% | 1020.3 hPa | 0 mm | - | 11 W/m² | - |
| 1777854699 | 25.56° C | 34% | 1020.2 hPa | 0 mm | - | 14 W/m² | - |
| 1777854396 | 25.56° C | 34% | 1020.2 hPa | 0 mm | - | 16 W/m² | - |
| 1777854093 | 25.56° C | 33% | 1020.2 hPa | 0 mm | - | 18 W/m² | - |
| 1777853791 | 25.56° C | 33% | 1020.1 hPa | 0 mm | - | 20 W/m² | - |
| 1777853487 | 26.11° C | 31% | 1020.4 hPa | 0 mm | - | 20 W/m² | - |
| 1777853184 | 26.11° C | 31% | 1020.5 hPa | 0 mm | - | 20 W/m² | - |
| 1777852882 | 26.11° C | 31% | 1020.3 hPa | 0 mm | - | 20 W/m² | - |
| 1777852580 | 26.11° C | 31% | 1020.5 hPa | 0 mm | - | 24 W/m² | - |
| 1777852276 | 26.67° C | 32% | 1020.4 hPa | 0 mm | - | 34 W/m² | - |
| 1777851974 | 26.67° C | 31% | 1020.5 hPa | 0 mm | - | 33 W/m² | - |
| 1777851672 | 26.67° C | 30% | 1020.3 hPa | 0 mm | - | 69 W/m² | - |
| 1777851369 | 26.67° C | 30% | 1020.5 hPa | 0 mm | - | 42 W/m² | - |
* Rain latest hour (hover to see other rain measurements)
** Current wind speed in m/s (hover to see current wind gust speed)